ED1ZAI-13 Weather Reports


time (UTC)temp
C
wind
direction
speed
KPH
gust
KPH
rain 1hr
cm
rain 24hr
cm
rain mn
cm
humidity
%
barometer
mb
20260504000107 11 304 0.0 0.0 0.00 0.66 0.00 78 1011.8
20260503235106 11 304 0.0 0.0 0.00 0.66 0.00 77 1011.8
20260503234108 11 304 0.0 0.0 0.00 0.66 0.00 78 1012.0
20260503233108 11 304 0.0 0.0 0.00 0.66 0.00 78 1011.9
20260503232108 11 304 0.0 0.0 0.00 0.66 0.00 78 1011.9
20260503231107 11 302 0.0 0.0 0.00 0.66 0.00 79 1012.0
20260503230107 11 302 0.0 1.6 0.00 0.66 0.00 79 1012.0
20260503225106 11 304 1.6 3.2 0.00 0.66 0.00 78 1011.8
20260503224108 11 304 1.6 3.2 0.00 0.66 0.00 77 1012.0
20260503223108 12 304 1.6 3.2 0.00 0.66 0.00 76 1012.0
20260503222108 12 302 0.0 0.0 0.00 0.66 0.00 76 1012.0
20260503221107 12 304 0.0 0.0 0.00 0.66 0.00 79 1012.1
20260503220107 11 285 0.0 0.0 0.00 0.66 0.66 79 1012.2
20260503210108 11 223 1.6 3.2 0.00 0.66 0.66 80 1012.3
20260503205108 11 223 1.6 3.2 0.00 0.66 0.66 80 1012.3
20260503204108 11 222 0.0 0.0 0.00 0.66 0.66 78 1012.1
20260503203107 12 222 0.0 0.0 0.05 0.66 0.66 73 1011.8
20260503202107 12 222 0.0 0.0 0.05 0.66 0.66 73 1011.6
20260503201107 12 223 0.0 0.0 0.05 0.66 0.66 74 1011.5
20260503200106 12 223 0.0 0.0 0.05 0.66 0.66 73 1011.4
20260503195107 12 223 0.0 0.0 0.05 0.66 0.66 73 1011.4
20260503194108 12 224 0.0 0.0 0.05 0.66 0.66 72 1011.2
20260503193107 12 223 1.6 4.8 0.00 0.61 0.61 74 1011.5
20260503192107 12 222 0.0 0.0 0.00 0.61 0.61 73 1011.3
20260503191107 12 221 0.0 0.0 0.00 0.61 0.61 70 1011.1
20260503190108 12 221 0.0 0.0 0.00 0.61 0.61 71 1010.8
20260503185108 12 222 0.0 0.0 0.00 0.61 0.61 71 1010.6
20260503184108 13 222 0.0 0.0 0.00 0.61 0.61 70 1010.7
20260503183107 13 222 0.0 0.0 0.00 0.61 0.61 69 1010.6
20260503182107 13 221 0.0 0.0 0.00 0.66 0.61 69 1010.7
20260503181107 13 222 0.0 0.0 0.00 0.66 0.61 69 1010.7
20260503180108 13 221 0.0 0.0 0.00 0.66 0.61 68 1010.7
20260503175108 14 222 0.0 0.0 0.00 0.66 0.61 65 1010.5
20260503174108 13 222 0.0 0.0 0.00 0.66 0.61 65 1010.5
20260503173108 15 221 0.0 0.0 0.00 0.66 0.61 63 1010.2
20260503172106 15 221 0.0 0.0 0.00 0.66 0.61 64 1010.2
20260503171106 15 254 0.0 0.0 0.00 0.66 0.61 64 1010.1
20260503170107 15 254 0.0 1.6 0.00 0.66 0.61 63 1010.1
20260503160106 13 84 1.6 3.2 0.20 0.71 0.61 76 1010.9
20260503150610 14 228 0.0 0.0 0.05 0.84 0.41 75 1010.7
20260503130609 20 216 0.0 0.0 0.00 0.84 0.36 52 1011.3
20260503110609 13 92 0.0 0.0 0.15 1.24 0.36 81 1013.1
20260503081610 13 224 0.0 3.2 0.00 1.70 0.00 75 1013.1
20260503080610 13 222 0.0 3.2 0.00 1.70 0.00 78 1013.1
20260503072609 13 225 0.0 0.0 0.00 1.70 0.00 82 1013.1
20260503071610 12 226 0.0 0.0 0.00 1.70 0.00 84 1013.4
20260503070610 11 225 0.0 3.2 0.00 1.70 0.00 86 1013.9
20260503054610 12 125 0.0 0.0 0.00 1.70 0.00 80 1013.1
20260503053609 11 140 0.0 0.0 0.00 1.70 0.00 80 1013.1
20260503052609 12 160 0.0 0.0 0.00 1.70 0.00 79 1013.0
20260503051609 12 148 0.0 0.0 0.00 1.70 0.00 80 1013.0
20260503050610 12 148 0.0 0.0 0.00 1.70 0.00 79 1012.9
20260503045609 12 149 0.0 0.0 0.00 1.70 0.00 81 1013.0
20260503044609 12 161 0.0 0.0 0.00 1.70 0.00 81 1013.1
20260503043609 11 153 0.0 0.0 0.00 1.70 0.00 81 1013.1
20260503042609 11 135 0.0 0.0 0.00 1.70 0.00 81 1013.2
20260503041608 11 112 0.0 0.0 0.00 1.70 0.00 80 1013.1
20260503041242 11 112 0.0 0.0 0.00 1.70 0.00 80 1013.1
20260503040240 11 136 0.0 3.2 0.00 1.70 0.00 83 1013.4
20260503035241 11 187 0.0 0.0 0.00 1.70 0.00 84 1013.5
20260503034241 10 125 0.0 3.2 0.00 1.70 0.00 83 1013.8
20260503033241 11 142 1.6 4.8 0.00 1.70 0.00 84 1013.8
20260503032241 11 128 0.0 0.0 0.00 1.70 0.00 82 1013.6
20260503031241 11 128 0.0 1.6 0.00 1.70 0.00 81 1013.5
20260503030241 11 128 0.0 0.0 0.00 1.70 0.00 82 1013.5
20260503025312 11 129 0.0 0.0 0.00 1.70 0.00 82 1013.5
20260503024312 11 127 0.0 0.0 0.00 1.70 0.00 82 1013.6
20260503023314 11 125 0.0 0.0 0.00 1.70 0.00 81 1013.6
20260503022313 11 127 0.0 0.0 0.00 1.70 0.00 81 1013.6
20260503021313 11 127 0.0 1.6 0.00 1.70 0.00 82 1013.8
20260503020313 11 134 0.0 0.0 0.00 1.70 0.00 82 1013.8
20260503015312 11 134 0.0 0.0 0.00 1.70 0.00 82 1013.8
20260503014312 11 134 0.0 0.0 0.00 1.70 0.00 82 1013.9
20260503013312 11 134 0.0 0.0 0.00 1.70 0.00 82 1014.1
20260503012311 11 132 0.0 0.0 0.00 1.70 0.00 82 1014.2
20260503011311 11 134 0.0 0.0 0.00 1.70 0.00 82 1014.3
20260503010313 11 134 0.0 0.0 0.00 1.70 0.00 82 1014.4
20260503005312 11 133 0.0 1.6 0.00 1.70 0.00 82 1014.6
20260503004312 11 132 0.0 0.0 0.00 1.70 0.00 80 1014.5
20260503003312 11 132 0.0 0.0 0.00 1.70 0.00 80 1014.8
20260503002311 11 133 0.0 1.6 0.00 1.70 0.00 80 1014.7
20260503001311 12 132 0.0 0.0 0.00 1.70 0.00 77 1014.7
20260503000311 12 134 0.0 0.0 0.00 1.70 0.00 78 1014.9